TimeEST,TemperatureF,Dew PointF,Humidity,Sea Level PressureIn,VisibilityMPH,Wind Direction,Wind SpeedMPH,Gust SpeedMPH,PrecipitationIn,Events,Conditions,WindDirDegrees,DateUTC
12:53 AM,37.9,35.1,89,30.32,8.0,South,10.4,-,N/A,,Overcast,180,2012-12-02 05:53:00
1:53 AM,39.0,36.0,89,30.33,9.0,South,9.2,-,N/A,,Overcast,190,2012-12-02 06:53:00
2:53 AM,39.0,35.1,86,30.33,10.0,South,6.9,-,N/A,,Overcast,180,2012-12-02 07:53:00
3:02 AM,39.2,35.6,87,30.28,10.0,South,8.1,-,N/A,,Overcast,180,2012-12-02 08:02:00
3:53 AM,39.0,35.1,86,30.30,9.0,South,8.1,-,N/A,,Overcast,180,2012-12-02 08:53:00
4:53 AM,39.9,36.0,86,30.30,9.0,South,9.2,-,N/A,,Overcast,190,2012-12-02 09:53:00
5:53 AM,39.9,36.0,86,30.26,8.0,South,9.2,-,N/A,,Overcast,170,2012-12-02 10:53:00
6:53 AM,39.0,37.0,93,30.24,7.0,South,8.1,-,N/A,,Overcast,170,2012-12-02 11:53:00
7:53 AM,39.0,36.0,89,30.24,7.0,South,10.4,-,N/A,,Mostly Cloudy,170,2012-12-02 12:53:00
8:10 AM,39.2,35.6,87,30.19,8.0,South,6.9,-,N/A,,Scattered Clouds,190,2012-12-02 13:10:00
8:17 AM,39.2,35.6,87,30.19,8.0,SSE,8.1,-,N/A,,Mostly Cloudy,160,2012-12-02 13:17:00
8:29 AM,39.2,35.6,87,30.18,8.0,South,6.9,-,N/A,,Scattered Clouds,170,2012-12-02 13:29:00
8:53 AM,39.9,36.0,86,30.23,9.0,South,6.9,-,N/A,,Mostly Cloudy,170,2012-12-02 13:53:00
9:53 AM,42.1,36.0,79,30.21,9.0,South,11.5,20.7,N/A,,Overcast,180,2012-12-02 14:53:00
10:53 AM,42.1,37.0,82,30.17,9.0,South,10.4,17.3,0.00,Rain,Light Rain,180,2012-12-02 15:53:00
11:53 AM,43.0,37.9,82,30.12,9.0,South,9.2,18.4,0.00,Rain,Light Rain,190,2012-12-02 16:53:00
12:53 PM,44.1,37.9,79,30.09,9.0,South,12.7,19.6,0.00,,Overcast,180,2012-12-02 17:53:00
1:53 PM,45.0,39.0,80,30.06,9.0,South,11.5,-,0.00,Rain,Light Rain,190,2012-12-02 18:53:00
2:53 PM,45.0,39.9,82,30.03,6.0,South,9.2,-,0.00,,Haze,190,2012-12-02 19:53:00
3:53 PM,45.0,41.0,86,30.03,4.0,SSW,8.1,-,0.06,Rain,Light Rain,210,2012-12-02 20:53:00
4:53 PM,45.0,42.1,90,30.01,7.0,SSW,9.2,-,0.04,Rain,Light Rain,210,2012-12-02 21:53:00
5:12 PM,44.6,42.8,93,29.99,6.0,SSW,9.2,-,0.00,Rain,Light Rain,210,2012-12-02 22:12:00
5:38 PM,44.6,42.8,93,29.99,6.0,SW,10.4,-,0.00,Rain,Light Rain,220,2012-12-02 22:38:00
5:53 PM,45.0,42.1,90,30.02,6.0,SSW,8.1,-,0.01,Rain,Light Rain,210,2012-12-02 22:53:00
6:18 PM,44.6,42.8,93,30.01,6.0,SW,10.4,-,0.00,,Overcast,220,2012-12-02 23:18:00
6:53 PM,45.0,42.1,90,30.05,6.0,SW,11.5,-,0.00,,Overcast,230,2012-12-02 23:53:00
7:05 PM,44.6,42.8,93,30.02,5.0,SW,10.4,-,N/A,,Overcast,220,2012-12-03 00:05:00
7:30 PM,44.6,42.8,93,30.02,5.0,SW,12.7,-,N/A,,Overcast,220,2012-12-03 00:30:00
7:53 PM,46.0,42.1,86,30.06,5.0,SW,10.4,-,N/A,,Overcast,230,2012-12-03 00:53:00
8:05 PM,44.6,42.8,93,30.03,5.0,SW,11.5,-,N/A,,Overcast,220,2012-12-03 01:05:00
8:25 PM,46.4,42.8,87,30.04,5.0,SW,8.1,-,N/A,,Overcast,230,2012-12-03 01:25:00
8:32 PM,46.4,42.8,87,30.03,5.0,SW,9.2,-,N/A,,Overcast,220,2012-12-03 01:32:00
8:53 PM,46.0,43.0,89,30.07,5.0,SW,8.1,-,N/A,,Overcast,230,2012-12-03 01:53:00
9:09 PM,46.4,42.8,87,30.04,5.0,SW,9.2,-,N/A,,Overcast,220,2012-12-03 02:09:00
9:29 PM,46.4,42.8,87,30.04,5.0,SSW,9.2,-,N/A,,Overcast,210,2012-12-03 02:29:00
9:53 PM,46.0,43.0,89,30.06,5.0,SSW,10.4,-,N/A,,Overcast,210,2012-12-03 02:53:00
10:53 PM,46.0,44.1,93,30.06,5.0,SW,9.2,-,N/A,,Overcast,220,2012-12-03 03:53:00
11:31 PM,46.4,44.6,93,30.05,5.0,SW,5.8,-,N/A,,Overcast,230,2012-12-03 04:31:00
11:53 PM,46.9,44.1,90,30.08,5.0,SW,5.8,-,N/A,,Overcast,220,2012-12-03 04:53:00